Preview of NWS' New Version of Forecast
This preview is not operational and should not be used for support decisions.

Regional Weather Roundup (RWR)

Issued by National Weather Service (NWS)

                            
000
ASUS45 KBOI 211410
RWRID 

IDAHO REGIONAL WEATHER ROUNDUP
NATIONAL WEATHER SERVICE BOISE ID
700 AM MST THU FEB 21 2019

NOTE: "FAIR" INDICATES FEW OR NO CLOUDS BELOW 12000 FEET
WITH NO SIGNIFICANT WEATHER AND/OR OBSTRUCTIONS TO VISIBILITY

IDZ012-014-211500-
SOUTHWEST IDAHO

  
CITY           SKY/WX    TMP DP  RH WIND       PRES   REMARKS
BOISE          LGT SNOW  28  24  85 SE7       29.80R FOG     WCI  21  
CALDWELL       FLURRIES  27  25  92 W7        29.83R WCI  19          
MOUNTAIN HOME  LGT SNOW  24  24 100 SE9       29.80R FOG     WCI  14  
$$

IDZ016-017-211500-
SOUTHCENTRAL IDAHO

  
CITY           SKY/WX    TMP DP  RH WIND       PRES   REMARKS
BURLEY         PTCLDY    15   9  76 E8        29.73R WCI   4          
JEROME         PTCLDY    14   9  80 E15       29.73S WCI  -1          
TWIN FALLS     CLOUDY    18  13  80 E14       29.73R WCI   4          
$$

IDZ019>023-211500-
SOUTHEAST IDAHO

  
CITY           SKY/WX    TMP DP  RH WIND       PRES   REMARKS
IDAHO FALLS    PTCLDY    -1  -5  82 N6        29.77R WCI -13          
POCATELLO      PTCLDY     3  -2  79 CALM      29.75R                  
REXBURG        CLEAR      2  -3  80 E9        29.76S WCI -13          
$$

IDZ006-010-011-018-031-032-211500-
CENTRAL IDAHO MOUNTAINS

  
CITY           SKY/WX    TMP DP  RH WIND       PRES   REMARKS
MCCALL         CLOUDY     8   4  83 CALM      29.69R FOG              
HAILEY         PTCLDY     9   3  78 NW10      29.70F WCI  -6          
STANLEY          N/A     -6 -12  75 S3        29.68R                  
SALMON         CLOUDY    18  10  71 N12       29.86R WCI   5          
CHALLIS        PTCLDY     9   4  80 CALM      29.76R                  
$$

IDZ002-004-006-007-026-211500-
NORTHERN IDAHO

  
CITY           SKY/WX    TMP DP  RH WIND       PRES   REMARKS
LEWISTON       LGT SNOW  25  22  88 S3        29.99S FOG              
LOWELL           N/A     27  25  92 CALM      29.97                   
COEUR D'ALENE  CLEAR     15  12  88 N14       29.99R WCI   0          
MULLAN PASS    CLEAR      7   2  80 E6        29.77R WCI  -3          
$$